Wind_Speed
20 23 24 25 25 26 27 27 27 28 27 26 25 24 24 25 24 26 30 26 23 23 21 19 23 27 27 26 25 23 21 20 17 16 14 14 14 14 13 11 8 7 6 6 8 11 14 16 16 17 19 20 20 20 20 19 18 17 15 15 14 14 13 13 13 14 14 14 14 13 13 13 12 12 12 12 13 13 13 12 10 9 7 7 6 5
20 19 18 21 23 25 27 28 29 30 28 26 25 24 26 28 26 28 32 27 24 26 24 21 22 26 29 29 28 26 23 21 20 18 17 15 15 15 14 13 11 9 7 6 7 11 15 17 17 18 20 20 20 20 20 19 19 17 17 16 15 15 14 14 14 14 14 13 13 13 13 13 12 12 12 13 13 13 13 12 10 9 8 7 6 5
19 14 13 18 22 24 26 27 29 30 29 27 28 28 28 27 27 31 32 26 27 29 26 24 23 27 31 32 31 28 25 24 23 21 19 18 16 16 16 15 14 12 10 8 8 10 16 18 19 19 20 20 21 21 20 20 19 18 18 17 16 16 15 15 14 14 13 12 12 12 12 13 12 12 13 13 14 14 13 11 10 10 9 7 6 5
17 14 15 19 21 24 26 28 30 32 32 31 31 29 26 26 29 31 30 30 32 32 29 27 25 27 32 34 32 30 28 27 25 23 22 20 18 17 17 17 17 16 14 11 9 9 14 18 20 20 20 21 21 21 21 21 20 19 19 18 18 17 17 16 15 13 12 12 11 11 12 12 13 14 15 15 14 13 11 10 10 10 8 7 5 4
20 19 22 22 24 26 28 31 32 33 32 31 31 28 25 27 29 29 34 34 33 33 31 29 28 28 32 34 33 32 31 30 28 26 24 22 20 19 18 17 16 17 16 13 11 10 14 18 21 22 23 22 22 22 22 22 21 20 20 20 20 19 18 17 16 14 13 12 12 12 12 13 15 16 16 15 13 12 10 10 10 9 8 6 4 3
23 24 26 26 26 27 28 30 31 31 31 30 29 28 28 30 29 31 34 31 30 33 33 35 34 30 30 33 35 36 35 32 31 29 25 23 22 20 17 15 16 16 16 15 13 12 13 17 20 22 23 23 23 23 23 23 22 22 21 21 21 20 20 19 17 15 14 13 13 13 14 15 16 15 15 14 13 12 11 10 10 9 8 6 4 3
27 27 27 28 28 27 27 27 27 28 30 30 29 30 32 32 31 31 30 29 32 35 37 41 39 31 30 35 38 39 37 35 34 31 27 25 23 19 17 17 17 17 17 16 15 13 14 16 19 20 22 23 23 23 23 23 23 23 22 22 22 22 21 20 18 17 16 15 15 15 16 16 15 14 14 14 14 13 12 12 11 10 9 7 5 3
28 28 28 28 28 27 25 22 23 26 27 28 30 33 34 32 32 31 29 31 34 36 41 44 38 34 34 36 38 39 38 37 36 32 28 25 23 20 18 17 17 18 18 19 18 16 15 16 19 21 22 23 24 25 24 24 24 24 23 23 23 22 22 21 20 19 18 17 17 17 17 16 16 15 16 16 15 14 14 13 12 10 9 8 6 4
27 29 27 27 28 27 23 20 23 26 26 26 29 32 33 33 34 33 33 35 35 39 45 43 38 38 33 31 37 40 40 40 38 33 29 26 24 22 20 19 18 18 19 19 20 19 17 17 19 22 24 24 25 25 25 25 24 24 23 23 22 21 21 21 20 20 20 19 19 18 17 17 17 16 16 16 16 16 15 14 13 12 11 9 8 6
34 32 29 32 33 29 25 26 28 28 26 27 28 29 33 37 37 37 38 38 39 43 46 42 40 38 27 26 37 42 41 41 38 33 30 28 27 25 23 20 19 18 18 19 19 20 20 19 19 21 24 24 24 24 24 24 23 22 22 21 21 20 20 20 21 21 21 20 19 18 17 17 17 17 17 17 17 17 16 16 14 13 12 10 9 7
40 35 35 38 36 31 31 33 33 31 30 30 28 29 35 40 41 43 43 42 45 46 44 40 39 39 28 25 36 43 41 40 37 33 31 30 29 27 24 22 20 19 18 18 18 19 20 20 20 20 21 22 22 23 23 23 22 21 21 20 20 20 20 21 21 21 21 20 20 19 18 18 18 17 17 17 18 18 17 16 15 13 12 11 10 9
42 39 40 40 35 34 36 36 34 34 34 32 30 31 36 39 42 45 45 46 47 45 41 38 39 43 31 20 30 40 39 38 38 35 34 32 31 29 26 24 22 21 19 19 19 20 20 21 20 18 18 19 20 20 21 21 21 20 20 21 21 21 20 20 20 20 20 20 20 19 19 18 18 18 18 18 18 19 18 17 15 14 13 12 11 11
43 41 43 42 36 36 38 37 36 36 36 33 32 34 37 38 40 42 43 45 43 40 40 39 40 42 26 13 25 37 36 38 40 37 36 34 32 30 28 26 25 23 22 22 20 20 20 19 18 18 18 18 18 19 20 20 21 21 21 22 22 21 21 21 21 21 21 21 20 20 20 19 19 19 19 19 19 19 19 18 16 15 14 13 13 12
42 41 44 44 40 39 38 37 37 36 35 33 33 35 35 34 35 36 38 39 36 36 40 42 40 36 24 15 23 28 29 37 40 38 37 35 33 31 29 28 27 25 24 24 22 21 20 19 19 20 20 19 19 20 21 21 21 22 22 22 22 22 22 22 22 22 22 22 22 21 20 20 19 19 20 20 20 19 19 18 17 16 15 15 14 12
43 42 41 42 41 40 38 37 35 33 33 32 32 33 33 32 33 33 34 33 31 35 41 40 32 27 25 21 20 20 25 35 40 38 37 36 34 33 32 30 29 28 26 25 24 23 22 22 22 22 22 21 21 21 22 22 22 22 23 23 23 23 23 23 23 23 23 23 23 22 21 20 19 19 20 20 20 20 19 18 18 17 16 16 15 13
45 42 40 40 39 39 39 37 36 35 34 32 32 34 34 32 32 31 32 31 31 36 39 31 19 19 23 18 15 19 26 33 38 38 37 37 35 34 33 32 31 29 28 26 25 24 23 23 24 25 25 24 23 23 23 23 22 22 23 23 23 24 23 23 23 23 23 24 24 23 22 20 19 19 19 20 20 20 20 18 17 17 17 17 15 13
46 44 44 42 39 40 41 39 39 39 36 34 34 33 30 30 31 31 31 32 32 35 34 25 15 16 19 15 13 18 25 31 37 38 36 36 36 36 34 32 31 31 29 27 26 24 23 23 23 24 25 25 25 24 24 23 22 23 23 23 23 24 23 23 23 23 23 23 23 22 22 21 20 20 19 20 20 21 21 19 18 18 18 17 15 14
48 47 48 45 40 41 41 40 42 42 39 40 37 31 29 33 35 33 34 35 34 34 32 25 18 16 18 16 15 17 24 29 34 37 37 37 38 38 36 33 32 31 30 28 26 25 24 24 23 23 23 24 25 25 24 24 24 24 23 23 23 23 23 23 24 23 23 23 23 22 22 21 20 20 20 21 21 21 21 20 19 18 18 18 17 15
51 50 51 47 41 41 41 43 47 46 44 44 39 34 36 38 35 35 36 35 33 32 28 23 17 15 17 17 16 19 25 29 32 35 37 39 41 39 37 35 34 32 31 29 27 25 25 24 23 22 21 21 22 24 25 26 26 26 25 25 24 24 24 24 24 23 23 23 23 22 21 21 20 20 20 21 21 21 20 21 21 20 19 19 18 16
52 51 53 49 44 43 45 48 51 49 48 47 43 41 44 41 37 37 36 33 32 29 26 22 16 12 15 18 19 22 26 29 32 36 38 40 42 40 39 37 35 34 32 29 27 26 24 22 20 18 17 18 19 21 24 26 27 27 27 26 26 25 25 24 24 23 23 23 22 21 21 20 20 20 20 20 20 20 20 21 22 21 21 20 19 18
54 52 54 51 47 47 49 50 52 51 50 49 47 47 48 44 40 39 38 36 34 29 24 20 14 10 13 17 19 22 27 30 33 38 40 40 42 42 42 40 38 37 34 31 29 27 24 22 19 17 16 18 20 21 23 26 27 27 28 28 27 27 26 25 24 23 23 23 22 22 21 21 20 20 20 20 20 20 21 21 22 22 22 21 20 19
57 54 54 54 51 50 50 51 51 52 52 50 48 48 47 44 42 42 40 37 34 28 22 17 13 12 13 16 18 22 28 31 34 39 42 41 42 44 44 42 41 39 36 33 31 29 27 25 22 20 20 21 22 23 23 25 26 27 28 28 28 29 28 26 25 24 23 23 22 22 22 22 22 21 21 20 20 20 21 21 22 23 23 22 21 21
58 57 56 56 53 50 51 53 53 53 52 49 48 48 47 45 45 45 41 37 34 29 25 22 17 15 14 14 14 18 25 30 33 37 41 42 43 43 44 44 43 41 38 35 33 32 30 27 26 26 25 23 22 24 24 25 26 27 27 29 30 29 28 27 26 25 24 24 23 22 23 23 22 22 22 21 20 21 21 22 23 24 23 23 23 22
58 58 57 56 56 53 54 57 55 53 52 52 52 51 50 49 49 47 43 40 37 34 32 28 22 20 18 14 13 17 23 28 31 35 40 42 43 43 44 44 43 42 40 37 35 34 33 31 30 30 28 24 23 25 27 26 25 25 27 29 30 30 29 28 28 27 25 24 23 23 23 22 23 23 22 21 21 21 22 23 24 25 24 24 24 22
59 60 57 57 59 58 58 59 57 55 55 55 54 53 52 52 52 50 47 44 42 40 36 31 25 24 22 17 17 21 23 27 30 33 38 40 42 43 43 44 44 42 40 38 37 37 37 37 35 33 31 29 26 26 28 28 26 25 25 27 28 29 30 29 28 27 25 24 24 23 21 22 23 22 21 20 20 21 23 24 25 25 26 25 25 24
62 63 61 60 61 60 59 61 59 57 57 56 55 54 54 54 54 51 49 48 46 41 37 32 29 26 20 19 21 23 24 27 29 31 35 38 40 42 43 44 44 42 41 40 39 38 39 39 38 36 34 32 29 28 28 29 28 26 24 24 26 28 30 30 28 26 25 25 24 22 20 21 22 21 20 20 20 21 23 24 24 25 26 26 26 25
64 65 63 62 63 61 60 62 61 59 59 59 57 56 55 56 56 52 50 50 46 40 37 33 29 24 19 21 26 25 24 26 26 29 33 37 39 41 43 44 44 43 43 42 41 40 40 39 39 39 38 35 32 30 29 29 29 28 24 23 24 27 29 30 28 26 25 25 24 21 20 21 21 21 20 20 21 21 22 23 24 24 25 25 25 25
66 66 65 63 63 63 62 62 61 61 61 61 59 58 57 57 55 52 52 51 46 42 39 33 29 25 21 23 25 25 24 24 24 27 32 36 39 41 43 45 45 45 44 43 43 42 41 41 41 41 40 38 36 34 31 30 30 28 24 24 25 25 27 28 28 26 24 25 24 21 20 21 21 22 21 21 21 21 21 21 21 21 22 23 23 23
67 68 67 65 65 64 63 62 62 62 62 61 60 59 57 56 54 52 52 51 48 46 41 34 30 28 25 25 23 21 21 23 24 26 29 33 36 39 41 44 45 46 46 45 45 44 43 43 42 43 42 41 39 37 33 31 30 28 25 24 24 24 25 27 27 25 24 24 22 20 20 22 23 23 22 21 20 19 18 18 18 19 19 20 20 20
69 69 68 67 67 66 65 64 63 62 61 61 61 60 58 57 54 54 54 52 50 48 42 36 34 32 30 29 26 22 21 23 24 24 25 27 31 35 39 41 44 46 47 47 46 45 44 43 43 43 43 43 42 39 36 32 30 28 26 25 24 23 24 25 25 25 24 23 21 20 22 24 24 24 22 20 19 18 17 17 17 16 16 16 16 16
72 72 70 68 68 67 67 66 64 63 62 62 62 61 59 58 56 56 56 53 51 48 42 38 37 35 31 30 29 27 26 27 26 25 25 26 28 31 33 36 39 42 44 45 45 45 44 44 43 43 44 44 43 42 39 35 31 29 28 28 26 24 25 25 25 24 23 21 21 22 23 24 24 23 21 20 19 18 16 15 14 13 13 12 12 11
74 74 71 69 69 69 69 68 67 66 65 64 64 62 60 59 58 57 56 53 52 49 43 40 40 37 32 29 29 28 29 29 29 28 27 26 26 27 28 29 31 34 36 39 41 43 43 43 43 43 44 44 45 44 42 38 35 33 31 29 28 28 28 27 26 25 23 22 23 24 24 24 24 23 21 20 20 18 17 16 14 13 12 11 10 9
75 75 73 72 71 71 72 70 69 68 68 67 65 63 61 60 58 58 57 55 53 51 47 44 42 38 33 31 30 29 29 30 30 29 29 29 28 28 26 26 26 27 28 30 33 37 40 40 41 41 42 43 44 45 43 41 39 35 31 30 31 29 28 28 27 27 25 25 25 25 24 24 24 23 22 21 21 20 19 18 16 14 13 12 12 10
77 76 75 74 73 73 74 72 70 70 70 68 66 65 63 61 59 59 58 57 55 54 50 47 45 40 36 35 34 31 29 30 31 32 33 33 32 30 28 27 26 26 25 25 27 30 33 35 36 37 38 40 42 44 44 43 41 37 33 32 31 28 26 25 26 27 27 26 26 26 26 26 24 23 22 22 22 22 21 20 18 17 16 15 14 12
79 78 77 76 75 75 75 74 72 72 71 70 69 67 65 63 62 61 60 58 56 55 52 49 47 42 38 39 38 32 30 32 34 35 36 36 35 33 30 30 29 28 27 27 26 26 27 29 30 31 33 36 39 43 44 44 43 40 36 34 30 27 25 23 23 24 25 26 27 28 28 27 25 24 24 24 24 23 22 21 19 18 17 16 15 13
80 80 79 78 77 77 77 75 74 74 73 72 70 68 66 65 64 63 61 59 57 55 53 51 48 43 40 41 40 35 33 35 36 36 36 37 37 36 34 33 32 31 30 29 28 27 27 26 26 26 28 31 35 41 43 44 44 41 37 34 30 27 26 24 22 22 23 25 27 28 29 28 27 26 25 25 25 24 23 22 20 19 19 18 17 16
81 80 80 80 79 78 78 77 76 75 75 73 71 70 69 67 66 65 63 62 60 59 57 54 50 45 42 41 40 38 36 37 37 36 35 37 38 37 36 35 35 34 32 30 29 29 28 27 26 25 26 27 31 36 41 43 43 40 37 35 31 29 28 25 22 21 21 22 26 28 29 29 28 27 26 26 26 25 24 23 22 22 22 21 21 20
82 81 81 81 80 80 79 79 77 76 75 74 73 73 71 69 67 66 64 64 63 62 59 55 52 47 44 42 41 40 39 39 38 34 33 36 39 38 37 37 37 36 35 33 31 29 29 29 28 27 27 26 27 32 36 38 38 37 37 36 33 32 30 26 24 22 20 20 24 28 28 28 28 27 27 27 26 26 26 26 25 25 25 25 24 24
82 82 82 82 82 81 81 80 77 76 76 76 76 75 73 70 69 67 65 64 65 63 59 56 53 49 46 44 43 42 41 41 39 35 32 34 38 39 38 38 38 38 36 35 33 31 30 30 29 29 28 26 26 30 32 33 35 36 37 38 37 34 30 27 25 24 22 21 23 26 27 28 28 28 27 27 28 28 29 29 28 28 29 29 29 29
83 83 84 84 84 83 82 81 79 78 78 78 78 77 74 71 70 68 66 66 66 64 60 57 54 51 48 46 45 44 43 43 41 37 34 34 38 40 39 38 38 38 37 36 34 32 31 31 30 30 30 27 28 31 32 32 34 36 38 39 37 33 29 28 27 27 26 25 25 26 28 29 29 28 28 29 29 31 31 31 31 32 33 34 34 35
84 85 85 85 85 84 84 83 82 81 80 79 79 78 74 72 71 69 68 68 67 64 62 58 55 52 49 47 46 45 45 44 42 38 35 36 38 40 40 39 38 37 36 36 35 33 32 32 32 31 31 29 30 32 32 32 32 34 36 36 34 30 28 29 29 29 29 28 28 28 29 30 30 29 30 31 32 33 33 33 34 36 37 37 38 38
84 86 87 86 86 86 85 85 84 83 82 81 80 78 76 74 72 70 69 69 68 65 63 59 55 52 50 48 47 46 45 44 43 40 37 36 38 40 40 39 38 37 37 36 34 33 32 32 32 32 31 31 31 33 33 33 32 33 35 35 33 31 30 29 29 29 29 30 30 30 30 31 31 30 32 34 34 34 35 37 39 40 40 39 39 39
81 86 88 88 88 87 87 87 86 85 84 82 81 79 77 74 74 72 69 68 68 66 64 60 56 53 51 49 47 46 45 44 43 42 40 37 37 39 40 40 39 38 37 36 35 33 33 32 32 32 31 32 32 33 34 34 33 34 35 35 33 32 31 30 30 31 31 32 33 32 32 32 32 32 34 36 36 36 37 38 38 39 39 39 38 38
75 80 86 90 90 89 89 89 88 87 85 84 82 80 78 75 75 73 71 69 68 66 64 61 58 54 52 50 48 46 45 45 44 43 41 39 38 39 40 40 40 39 38 37 36 34 34 33 32 31 32 32 33 34 34 34 34 33 33 33 33 32 32 32 32 33 33 34 35 35 35 35 35 35 37 39 39 39 36 33 33 34 35 36 37 37
69 75 84 89 90 92 92 91 90 88 86 85 84 83 80 77 76 74 72 71 69 67 64 62 59 56 53 51 49 47 45 45 44 43 42 40 38 39 40 40 40 39 39 39 38 36 34 34 34 33 32 33 34 34 35 35 34 33 33 33 33 33 33 33 33 34 36 37 37 38 38 38 37 37 37 38 39 38 35 33 34 35 35 37 38 39
62 71 80 85 88 93 95 92 90 89 87 87 86 84 81 78 76 74 74 72 70 68 66 63 61 58 54 51 49 47 46 45 45 44 43 40 38 38 39 40 40 40 40 39 39 38 36 35 35 35 34 34 35 35 36 36 36 36 36 36 36 36 35 35 36 38 39 39 39 40 41 41 40 39 39 39 38 37 36 36 37 38 39 40 41 41
54 64 72 78 85 91 94 93 92 90 89 88 86 84 82 79 76 75 75 73 71 69 67 65 62 60 56 52 49 46 45 45 45 45 44 41 38 37 38 39 40 40 40 40 40 39 39 37 37 37 36 36 36 37 37 37 38 38 38 38 39 39 39 39 40 40 41 40 41 42 43 43 43 42 40 40 39 38 39 40 41 41 43 44 43 44
46 56 64 71 80 88 92 94 93 91 90 89 86 84 83 81 78 77 76 75 73 70 68 66 64 61 59 55 50 46 44 44 44 45 44 42 40 38 37 38 39 39 40 40 40 41 40 39 38 38 38 37 38 38 39 39 39 40 40 40 40 40 41 41 42 42 42 42 42 42 43 43 42 41 41 40 41 41 42 43 45 46 46 46 46 47
40 48 56 63 71 80 87 90 90 90 91 89 87 86 85 83 80 78 76 75 73 70 68 67 65 63 61 57 52 48 45 44 43 44 44 43 41 39 38 38 38 39 39 39 40 41 41 40 39 38 38 38 38 39 41 42 42 41 41 41 41 41 41 42 42 42 42 42 42 42 42 42 42 43 43 43 44 45 46 47 48 48 47 47 48 49
34 39 45 53 61 70 76 80 83 87 90 90 88 88 86 84 82 78 76 75 73 70 69 68 66 64 62 59 55 50 47 45 43 43 44 44 42 40 39 39 38 38 38 39 40 41 41 40 39 39 38 38 37 38 41 43 44 44 43 43 43 43 43 43 43 43 43 43 43 44 44 44 45 45 46 47 48 48 48 48 48 48 48 48 49 50
28 34 40 49 57 61 64 68 75 82 85 86 88 88 86 85 82 79 77 75 73 71 70 68 68 66 62 61 58 53 47 45 45 44 44 44 43 42 40 39 39 39 39 39 39 40 40 40 39 39 38 38 38 37 38 41 44 46 46 45 45 45 45 45 46 46 45 45 46 46 46 47 48 49 49 49 49 48 47 47 47 48 49 50 51 52
Wind_Direction
226 225 223 225 227 226 225 226 229 231 230 229 230 229 229 232 229 227 232 230 223 222 220 210 202 205 210 209 209 209 202 195 187 180 176 173 170 163 153 148 147 149 157 167 175 178 182 186 185 185 186 185 182 180 180 180 182 180 176 176 177 176 177 179 183 187 190 191 190 189 188 188 186 182 180 177 176 175 172 170 166 161 155 147 136 123
225 225 222 223 225 225 225 225 227 229 229 229 230 229 228 229 229 229 235 234 229 229 225 219 209 207 210 208 209 212 208 199 189 182 180 177 177 173 163 155 152 156 163 168 178 179 178 181 183 184 186 185 183 182 180 180 182 178 175 175 173 174 177 181 187 191 192 191 189 187 186 186 184 182 179 177 175 175 173 170 166 159 151 140 127 110
224 221 219 220 220 220 221 222 225 229 228 226 226 226 223 224 226 229 236 236 233 234 230 225 216 207 210 209 209 212 211 203 195 190 187 184 184 180 171 163 158 160 166 170 179 184 180 179 180 182 184 185 184 183 180 180 182 177 175 173 171 175 180 184 189 191 190 188 186 185 186 185 183 182 181 179 178 177 175 172 165 156 148 138 124 108
220 214 214 213 212 213 213 214 218 223 223 221 222 222 218 221 224 227 235 234 232 235 234 230 222 209 211 213 211 212 211 206 201 198 196 189 186 188 183 175 168 164 164 168 176 184 182 179 178 179 183 185 185 184 182 180 181 180 178 174 173 178 181 184 187 187 185 182 182 185 187 186 184 185 185 183 182 180 176 171 162 155 150 142 129 114
216 211 213 210 209 210 209 211 214 217 219 219 219 217 215 220 222 223 229 229 230 236 238 237 231 214 212 215 212 212 212 207 204 204 202 194 190 194 194 184 176 168 162 164 170 179 184 183 181 179 181 184 186 186 184 181 181 182 181 178 178 181 181 183 184 181 178 177 180 185 188 189 189 188 186 186 185 181 177 167 160 159 157 153 144 135
216 212 213 214 214 214 213 213 214 216 218 219 217 216 217 221 219 219 226 226 227 234 238 238 235 220 211 214 213 213 214 209 206 207 205 201 197 195 191 185 180 172 165 164 165 174 184 185 185 183 182 183 186 188 185 182 183 184 184 183 183 183 183 183 181 178 176 177 180 185 191 193 191 189 187 188 188 185 181 172 170 171 170 171 168 169
219 215 214 218 218 217 219 217 215 218 219 217 214 214 218 220 218 218 221 223 223 227 233 237 235 224 214 213 215 216 216 212 210 210 208 205 199 189 187 188 186 178 170 166 165 171 180 184 187 187 186 187 188 188 187 185 186 186 187 187 187 186 185 183 180 179 179 181 184 190 195 194 191 191 192 192 192 190 186 183 185 184 181 184 186 191
222 221 218 220 221 220 222 220 219 222 222 218 214 213 215 217 218 218 216 220 222 222 230 236 235 231 221 214 217 220 217 214 213 212 210 205 195 186 188 191 191 186 177 171 169 170 176 184 188 188 189 192 191 190 188 189 190 190 190 191 191 190 187 184 182 182 184 185 189 193 195 193 191 194 196 197 197 196 193 194 196 193 191 194 197 206
225 225 221 222 224 222 220 220 220 223 222 219 217 215 213 215 219 219 218 221 222 222 228 234 236 236 228 213 217 221 218 216 216 214 210 202 191 186 188 188 192 195 187 179 174 171 174 183 190 191 191 193 194 193 191 192 194 193 192 193 194 192 189 186 185 185 188 190 193 195 194 193 192 194 199 201 203 203 202 203 203 200 201 203 205 211
222 221 219 221 222 218 213 216 219 219 218 218 218 214 212 215 217 218 220 220 222 225 229 231 234 239 233 209 214 221 219 217 216 214 210 200 191 187 186 185 189 196 195 188 182 177 177 183 190 194 194 193 194 196 195 194 194 193 193 194 195 194 191 189 188 188 191 193 195 196 196 195 193 193 199 204 208 210 210 211 210 207 208 211 211 214
221 216 219 221 218 213 213 216 217 216 216 216 214 211 212 215 216 218 220 220 222 229 234 231 232 241 237 208 210 221 222 218 214 213 211 201 193 188 186 186 189 192 194 194 191 185 183 184 188 193 195 195 195 196 197 195 194 193 193 194 195 195 193 192 192 193 194 196 196 198 199 198 195 193 198 205 211 216 217 217 217 215 214 216 219 221
222 215 221 224 216 214 217 218 218 218 220 218 212 211 214 215 217 220 221 222 226 233 237 233 229 238 237 200 206 222 222 217 213 211 210 204 195 190 188 191 190 188 190 195 195 192 190 187 186 187 191 195 197 197 198 197 194 192 192 194 196 196 196 196 197 198 199 199 200 201 202 201 198 195 198 205 211 218 222 224 224 222 220 220 223 226
226 218 221 224 219 218 221 220 219 220 224 222 216 216 218 217 219 222 224 228 234 238 239 235 230 236 238 193 207 223 219 213 212 209 207 203 197 192 191 193 192 188 190 193 194 195 194 189 184 186 188 189 193 196 199 199 196 194 193 196 199 199 200 201 201 202 203 204 205 206 206 205 202 199 200 207 212 218 223 227 228 227 226 225 227 231
233 225 221 222 220 220 223 223 223 224 227 226 222 223 225 224 226 228 228 233 240 242 242 240 234 239 249 227 216 223 217 211 209 208 206 202 199 195 193 195 194 191 191 191 193 194 192 186 183 186 187 185 189 194 198 199 199 199 199 200 202 203 204 205 204 205 206 208 210 211 211 209 207 205 205 210 215 219 223 226 228 228 229 230 233 237
233 230 225 224 224 224 225 227 228 228 230 229 227 229 230 230 231 233 234 237 242 243 244 246 242 245 253 240 214 208 211 211 206 206 207 203 200 197 195 198 196 193 193 192 194 194 191 187 185 187 187 186 189 194 198 201 202 203 205 205 206 206 207 207 207 208 208 210 213 215 216 215 213 212 210 213 218 222 225 227 228 229 229 231 235 239
228 228 227 225 225 228 229 230 230 230 230 228 226 227 228 229 232 235 237 238 240 242 246 251 246 246 251 240 206 194 202 208 205 205 207 205 201 200 201 202 199 196 196 195 196 196 194 192 191 190 189 188 191 195 198 201 203 207 209 209 210 210 210 210 210 211 211 213 215 217 218 219 218 217 217 217 220 223 226 227 227 229 230 232 236 238
227 226 225 220 217 222 226 228 230 230 231 230 227 227 227 229 231 232 234 236 236 240 246 246 229 229 240 232 210 196 192 200 204 204 207 207 204 205 207 206 203 200 200 200 199 199 199 199 198 197 193 192 195 198 199 200 203 208 210 212 213 213 212 213 214 215 216 217 219 220 221 221 221 221 222 223 224 225 228 229 228 228 230 233 235 235
225 226 227 221 215 217 220 224 228 227 227 229 227 226 227 227 226 226 229 230 231 235 240 240 226 220 226 215 202 193 186 193 202 205 208 209 208 210 211 209 206 205 205 204 203 202 203 204 204 204 201 198 199 201 201 202 204 207 210 212 214 214 214 215 216 217 219 220 223 225 226 226 225 224 224 226 228 229 231 233 233 231 231 233 236 237
223 224 227 223 217 218 217 221 225 222 222 225 224 222 224 225 223 224 228 229 231 234 237 241 234 220 218 208 192 187 186 189 197 203 206 208 211 213 213 212 210 208 208 207 206 207 207 209 209 209 209 208 208 208 206 206 207 208 210 212 213 215 217 217 217 218 220 223 226 229 231 232 233 231 229 229 232 234 235 235 236 236 235 235 238 240
223 223 227 224 218 218 217 219 223 221 220 223 221 220 223 222 220 224 228 230 234 235 236 241 238 219 213 210 199 192 190 190 194 199 204 206 210 214 215 215 212 211 211 210 209 210 211 213 214 214 216 217 218 219 217 214 212 211 212 213 214 217 219 220 221 223 225 227 228 230 234 237 239 240 239 237 237 238 238 238 239 239 239 240 242 244
222 220 225 225 219 218 219 221 223 223 222 222 221 222 224 222 220 223 225 226 229 229 230 231 223 215 211 206 201 195 195 196 195 197 201 204 207 211 214 215 214 214 213 211 210 211 212 214 216 220 226 227 225 224 224 223 219 217 216 216 217 219 220 222 225 228 230 232 233 233 235 237 240 242 243 244 244 243 242 243 243 243 243 244 245 246
221 218 221 224 220 218 221 223 224 225 225 224 224 227 229 226 224 226 226 227 229 229 229 225 216 218 213 196 192 193 197 201 197 195 199 203 205 209 212 214 215 215 214 211 210 211 212 213 213 218 228 233 232 229 228 227 225 223 223 223 223 223 223 223 225 230 234 237 238 238 239 239 239 241 244 246 248 249 249 248 247 247 247 248 247 246
220 218 217 221 221 217 220 223 223 225 227 226 226 228 229 228 226 228 229 229 231 232 232 231 223 211 194 181 188 197 201 203 199 196 199 202 204 207 211 213 214 216 215 212 211 211 212 212 211 215 221 229 237 240 235 230 227 227 227 229 230 230 229 228 227 229 232 235 238 240 242 241 241 241 243 245 247 251 253 253 251 250 250 250 249 248
218 219 216 218 221 217 217 222 222 222 225 224 224 225 226 226 226 226 228 228 228 228 228 227 221 208 195 190 205 212 207 204 201 198 199 201 203 206 210 213 215 216 215 212 212 211 212 212 212 213 215 219 231 241 242 236 231 230 231 232 235 236 237 236 233 231 230 232 235 238 241 241 240 240 242 244 246 249 251 253 253 253 252 251 250 250
215 219 216 214 219 217 216 221 221 220 224 225 224 224 224 226 226 224 224 225 224 223 223 219 215 212 204 198 207 211 208 205 202 200 199 201 202 204 208 212 215 216 215 214 213 212 211 212 213 214 215 216 220 233 243 243 238 236 237 238 238 239 240 240 239 236 234 233 235 238 240 240 240 241 243 246 248 248 249 250 252 253 253 253 252 251
213 217 215 213 217 218 217 221 222 220 223 225 225 224 224 225 226 225 224 225 223 220 218 214 211 209 199 196 205 209 210 208 202 199 199 200 202 203 206 210 213 215 216 216 216 215 215 215 216 217 219 219 219 227 239 246 247 245 243 245 244 241 239 240 241 240 237 236 238 239 241 242 242 243 245 247 247 248 249 249 250 252 253 254 254 254
213 216 216 214 216 218 217 220 222 221 223 225 224 224 224 225 226 225 224 226 225 221 218 214 211 206 196 199 205 204 208 210 203 199 198 199 201 202 204 208 211 214 215 216 217 218 219 218 218 220 222 222 222 226 235 244 249 250 249 251 251 245 240 238 240 241 239 239 239 240 242 244 245 245 247 248 248 248 249 250 249 250 252 254 255 255
213 214 216 215 217 219 218 219 220 221 223 225 225 225 225 226 226 225 225 226 225 222 219 216 213 208 199 197 200 201 207 209 204 200 199 199 202 204 205 208 211 213 214 215 216 218 219 219 219 221 223 223 223 225 231 240 247 250 252 253 253 250 244 240 241 241 239 240 241 240 241 243 243 245 247 249 251 252 252 252 251 250 251 252 253 253
214 214 214 214 216 218 219 220 220 221 222 225 226 226 227 228 228 227 227 227 226 224 220 216 215 213 204 195 192 198 209 211 208 206 203 202 204 205 207 209 211 213 214 214 215 217 218 219 220 222 223 224 224 226 230 237 245 248 250 252 253 252 248 244 244 243 242 243 242 239 239 240 240 242 246 249 252 251 251 250 248 246 246 247 248 248
215 215 213 213 215 217 218 219 220 221 222 224 226 226 227 229 229 229 229 227 227 227 222 217 217 216 211 203 197 199 211 217 216 211 208 207 207 208 210 211 212 214 214 215 217 218 218 219 220 222 223 224 225 227 229 234 243 245 245 248 251 250 249 249 248 246 246 245 241 237 237 239 239 242 246 248 248 246 246 244 242 240 238 237 237 238
216 216 214 213 215 217 218 219 220 221 222 224 226 226 227 228 229 229 230 229 229 229 224 220 221 220 216 214 210 207 211 220 223 218 214 213 211 211 213 215 216 217 218 220 221 222 222 222 222 223 224 224 224 227 228 231 238 241 241 243 246 248 251 252 251 250 248 244 238 235 237 239 240 243 246 247 245 244 243 238 232 227 223 220 219 220
216 216 215 213 214 216 217 218 219 220 220 222 225 226 226 228 229 230 231 230 230 231 227 223 224 224 222 222 221 215 212 218 226 226 224 222 219 217 216 217 220 221 223 224 224 225 227 227 226 226 226 225 224 226 228 230 234 239 240 242 244 247 249 251 252 252 250 245 240 238 238 238 239 242 245 245 244 242 238 232 225 220 216 213 210 212
216 216 216 215 214 215 217 217 218 220 221 221 223 225 226 228 229 230 232 232 232 233 230 226 225 225 224 225 224 220 215 217 223 228 230 230 228 225 221 220 220 221 224 225 225 226 229 230 231 231 230 228 226 226 228 229 232 236 238 243 246 249 250 250 250 250 248 245 243 240 237 236 236 239 241 243 242 240 237 233 227 222 219 216 216 219
217 216 216 215 215 216 217 217 218 220 222 221 221 223 225 227 228 230 232 232 233 234 232 229 228 225 222 224 225 221 217 218 220 225 230 232 232 231 228 225 224 222 223 225 226 227 228 231 234 234 234 232 229 228 228 230 232 234 237 243 249 251 251 248 247 247 246 244 241 236 232 232 233 236 239 240 239 238 237 235 230 226 225 225 228 232
217 217 217 216 216 217 218 218 218 220 222 222 222 222 223 226 227 229 231 232 233 234 233 231 230 225 222 226 227 221 219 219 219 222 227 230 233 233 233 232 231 229 228 229 232 233 232 234 237 238 237 235 231 230 230 231 233 235 238 243 248 250 248 247 249 251 249 246 241 235 231 230 231 234 237 237 237 236 235 235 232 231 232 235 239 243
217 218 218 217 217 218 219 219 219 220 222 223 223 222 222 225 227 228 230 231 232 234 233 232 231 226 223 226 228 224 222 222 221 222 225 229 232 232 233 236 236 235 234 234 236 239 239 238 238 240 240 236 232 232 232 232 234 236 237 240 244 247 246 247 254 259 254 248 243 239 235 233 233 234 236 236 235 235 235 237 237 237 239 242 244 248
217 218 219 219 218 218 219 220 220 220 222 224 224 224 223 223 225 227 229 231 232 232 233 232 231 228 225 226 229 227 225 226 225 223 223 228 232 232 232 235 237 238 237 236 237 239 241 241 239 239 239 237 233 231 232 234 235 235 233 236 242 245 245 247 255 261 259 252 246 242 238 234 233 234 236 236 237 237 238 240 241 243 245 247 249 252
217 218 219 220 219 219 220 220 220 221 223 224 225 226 224 223 224 226 228 231 232 233 233 234 233 230 226 226 228 228 228 229 229 226 224 228 232 233 231 233 236 238 239 238 236 236 238 240 241 240 240 238 235 231 229 230 231 229 229 234 240 244 244 246 251 258 261 256 248 241 237 235 233 234 235 238 239 240 241 242 243 246 248 251 253 254
217 218 219 220 220 220 221 221 221 221 223 224 225 226 226 225 225 226 227 230 233 233 234 234 234 232 228 226 227 228 229 230 231 228 226 228 232 235 233 232 234 237 239 239 236 233 234 237 239 241 241 240 236 232 229 226 224 224 227 233 238 242 243 245 249 254 256 255 249 242 238 236 236 237 239 241 241 241 242 242 244 246 250 252 253 253
217 218 219 220 220 221 221 221 221 221 223 225 226 226 226 226 226 226 227 229 232 233 234 234 234 234 231 228 228 228 230 231 231 228 226 228 233 236 236 235 236 238 240 241 239 235 233 234 236 239 241 240 238 236 233 229 224 222 225 232 237 241 244 246 249 251 252 253 252 247 243 241 242 245 246 245 244 243 243 242 244 247 249 252 252 252
218 219 220 221 221 222 222 222 222 222 222 224 226 226 226 226 227 228 228 229 231 232 233 234 234 234 233 231 230 229 230 232 232 229 226 228 231 235 238 239 239 241 242 243 243 239 235 234 234 237 239 239 239 239 238 235 227 220 222 230 237 240 242 245 247 249 251 253 255 254 252 249 250 251 251 251 250 248 245 244 246 249 251 253 254 256
220 219 220 221 221 222 222 223 223 223 223 224 226 227 226 226 228 228 228 229 231 232 233 233 233 233 233 233 232 231 231 233 233 230 228 228 230 234 238 240 241 242 243 244 244 242 239 235 233 235 238 238 239 240 240 238 232 223 220 227 234 238 241 245 248 251 253 255 257 258 257 255 255 256 256 256 256 253 250 249 250 252 254 256 258 260
221 221 221 222 222 222 223 223 224 224 224 224 226 227 227 227 228 229 229 230 231 232 232 232 232 232 233 234 234 233 232 233 234 232 230 228 230 233 236 238 240 242 243 244 244 242 241 237 234 234 236 238 239 240 241 241 238 231 225 226 232 238 243 245 249 252 254 256 258 258 256 255 257 259 259 258 258 256 254 255 256 257 259 261 263 263
221 222 222 222 222 223 223 223 224 224 225 225 226 227 227 227 228 229 230 231 232 232 232 233 232 231 231 233 234 234 234 233 234 234 232 230 230 232 234 236 238 241 243 245 245 242 241 239 236 234 235 237 238 240 241 242 241 235 230 230 233 238 241 242 244 246 249 251 253 253 253 252 252 254 256 258 260 259 257 258 260 261 262 263 264 264
222 223 223 223 223 223 223 223 224 224 225 225 226 227 227 227 228 230 230 231 232 232 232 233 233 231 230 231 233 234 235 235 234 234 233 231 231 232 233 235 237 239 241 244 245 244 241 239 237 236 235 236 238 239 241 243 241 236 231 232 234 237 238 239 240 242 243 245 246 248 250 252 253 254 256 259 261 261 258 257 259 261 262 264 265 266
224 224 225 224 224 225 224 224 225 225 225 226 227 227 227 227 228 230 231 232 232 233 233 233 233 232 231 230 231 233 234 236 236 236 234 233 233 233 234 234 236 238 240 242 244 244 241 238 237 238 238 237 238 239 239 240 241 238 235 234 234 236 237 237 239 241 243 244 245 246 249 252 256 258 258 259 260 259 258 259 262 264 266 268 269 268
225 226 227 227 226 226 225 225 225 226 226 227 228 228 228 227 228 230 232 232 232 233 234 234 233 233 232 230 230 231 233 235 237 238 237 235 234 235 236 236 236 238 239 241 243 244 243 239 237 237 239 240 240 241 240 239 240 240 240 239 237 237 237 238 239 241 243 245 246 247 249 251 253 254 255 256 257 258 260 262 264 267 269 270 269 268
227 227 228 228 228 228 227 226 225 226 227 228 228 229 229 229 228 229 231 233 233 233 235 235 235 234 233 231 229 230 231 233 236 239 239 237 236 236 237 238 238 239 240 241 242 243 243 242 239 237 237 239 241 242 243 242 240 241 242 242 241 240 239 238 239 242 244 246 246 247 248 249 251 252 254 256 259 261 263 265 267 268 269 269 269 268
229 229 230 230 230 230 229 228 228 228 228 229 229 230 231 230 229 229 231 233 233 234 235 236 236 236 236 234 231 229 229 232 235 238 240 240 238 237 237 238 239 240 240 241 242 243 244 243 242 239 237 236 238 241 242 243 243 242 242 243 244 244 242 242 242 244 246 248 248 249 250 252 254 256 258 260 263 264 266 268 269 269 269 269 269 268
228 228 230 231 232 231 231 230 230 230 230 229 230 230 231 232 231 230 230 232 234 235 236 236 237 237 238 238 234 230 229 230 233 236 240 241 240 238 238 239 240 241 241 241 242 244 245 244 242 241 238 236 237 239 240 241 242 244 244 244 245 247 247 247 248 249 250 250 251 252 254 256 258 260 262 264 265 266 267 268 267 267 268 269 269 270
227 225 228 231 232 232 231 231 232 232 231 231 231 231 231 232 232 232 231 232 234 235 236 237 237 237 239 240 239 234 230 229 231 234 237 240 241 240 239 240 241 241 241 242 243 245 246 245 242 240 239 238 238 239 240 240 240 242 244 245 246 248 249 250 250 251 252 253 254 256 257 259 261 263 265 266 266 266 266 266 266 268 269 270 272 273
Height
5858 5859 5861 5864 5866 5868 5870 5872 5874 5874 5876 5879 5880 5882 5884 5886 5887 5889 5887 5888 5892 5894 5895 5896 5897 5897 5898 5898 5898 5898 5900 5900 5901 5902 5902 5902 5902 5902 5901 5902 5902 5902 5903 5904 5904 5904 5905 5906 5908 5910 5912 5913 5915 5916 5918 5920 5920 5922 5923 5924 5926 5928 5929 5930 5932 5932 5934 5934 5936 5937 5938 5939 5940 5940 5942 5942 5942 5943 5944 5944 5945 5946 5946 5946 5946 5946
5856 5857 5860 5862 5863 5865 5867 5869 5870 5872 5874 5876 5878 5880 5882 5883 5885 5886 5884 5886 5889 5890 5892 5894 5894 5896 5896 5896 5897 5898 5898 5899 5900 5900 5900 5900 5901 5901 5900 5900 5900 5902 5902 5902 5903 5904 5904 5905 5907 5909 5911 5913 5914 5916 5918 5919 5920 5921 5922 5924 5926 5928 5928 5930 5931 5932 5934 5934 5936 5937 5938 5939 5940 5940 5942 5942 5942 5943 5944 5944 5945 5946 5946 5946 5946 5947
5854 5857 5858 5858 5860 5861 5863 5865 5867 5868 5870 5874 5875 5876 5878 5880 5882 5883 5882 5884 5886 5887 5889 5890 5892 5893 5893 5894 5895 5896 5898 5898 5898 5898 5898 5899 5900 5900 5900 5899 5898 5900 5900 5902 5902 5903 5903 5904 5906 5908 5910 5912 5914 5916 5917 5918 5920 5921 5922 5924 5925 5926 5928 5930 5931 5932 5934 5934 5936 5937 5938 5938 5940 5940 5941 5942 5942 5943 5944 5944 5945 5946 5946 5946 5946 5947
5853 5855 5855 5855 5856 5858 5859 5861 5863 5864 5866 5869 5871 5873 5876 5878 5879 5880 5881 5882 5882 5884 5886 5888 5888 5890 5891 5892 5894 5895 5896 5896 5896 5897 5897 5898 5899 5900 5899 5898 5897 5897 5898 5900 5902 5902 5903 5904 5905 5907 5909 5911 5913 5914 5916 5918 5920 5920 5922 5922 5924 5926 5927 5928 5930 5932 5933 5934 5936 5936 5937 5938 5939 5940 5940 5942 5942 5942 5944 5944 5944 5946 5946 5946 5946 5947
5850 5851 5850 5852 5852 5854 5855 5856 5858 5860 5862 5866 5868 5871 5874 5874 5876 5878 5876 5876 5880 5881 5884 5885 5886 5887 5888 5890 5892 5894 5894 5894 5894 5895 5896 5896 5898 5898 5898 5898 5898 5897 5897 5898 5900 5902 5902 5903 5904 5906 5908 5910 5912 5913 5914 5916 5918 5920 5920 5922 5922 5924 5926 5927 5929 5930 5932 5934 5934 5936 5936 5937 5938 5939 5940 5941 5942 5942 5944 5944 5944 5946 5946 5946 5946 5946
5846 5847 5848 5848 5850 5850 5852 5853 5855 5858 5860 5862 5866 5868 5870 5870 5872 5874 5872 5875 5878 5879 5880 5882 5880 5883 5886 5888 5890 5890 5890 5891 5892 5893 5894 5895 5896 5897 5898 5898 5898 5897 5896 5897 5898 5900 5902 5903 5904 5905 5906 5908 5910 5912 5914 5915 5916 5918 5920 5920 5922 5923 5924 5926 5928 5930 5931 5932 5934 5934 5936 5936 5937 5938 5940 5940 5942 5942 5944 5944 5944 5946 5946 5946 5946 5946
5842 5843 5844 5845 5846 5848 5849 5851 5854 5855 5856 5859 5862 5864 5864 5866 5868 5870 5872 5874 5875 5876 5876 5874 5876 5880 5883 5884 5886 5886 5887 5888 5890 5891 5893 5894 5894 5896 5898 5898 5898 5897 5896 5896 5898 5898 5900 5902 5904 5905 5906 5908 5909 5911 5912 5914 5915 5916 5918 5920 5920 5922 5923 5924 5926 5928 5930 5931 5932 5933 5934 5935 5936 5938 5939 5940 5941 5942 5943 5944 5944 5945 5946 5946 5946 5946
5839 5840 5842 5842 5844 5846 5847 5850 5852 5852 5853 5856 5858 5859 5860 5864 5866 5867 5869 5869 5870 5872 5871 5868 5873 5876 5876 5880 5882 5882 5884 5886 5886 5890 5891 5892 5894 5895 5896 5898 5898 5897 5896 5896 5896 5897 5899 5901 5902 5904 5905 5906 5908 5909 5911 5912 5914 5915 5916 5918 5920 5921 5922 5924 5925 5926 5928 5929 5930 5932 5932 5934 5936 5936 5938 5939 5940 5941 5942 5943 5944 5944 5945 5946 5946 5946
5837 5837 5839 5840 5841 5843 5846 5848 5848 5848 5850 5853 5854 5856 5858 5860 5862 5864 5864 5864 5866 5868 5864 5866 5871 5870 5872 5878 5880 5879 5882 5883 5884 5888 5890 5891 5892 5893 5894 5896 5897 5897 5896 5896 5896 5896 5897 5899 5901 5902 5903 5904 5906 5908 5910 5911 5912 5914 5916 5918 5919 5920 5922 5923 5924 5925 5926 5928 5928 5930 5932 5933 5934 5936 5936 5938 5939 5940 5941 5942 5943 5944 5944 5944 5945 5945
5830 5832 5834 5834 5835 5840 5843 5844 5843 5844 5848 5849 5850 5852 5854 5856 5857 5859 5858 5860 5862 5860 5859 5864 5868 5866 5869 5875 5876 5875 5877 5880 5884 5887 5888 5889 5890 5891 5892 5894 5895 5896 5896 5896 5896 5896 5896 5897 5899 5901 5902 5904 5906 5908 5908 5910 5912 5914 5915 5917 5918 5920 5921 5922 5923 5924 5925 5926 5927 5928 5930 5931 5933 5934 5936 5936 5938 5938 5940 5940 5942 5942 5943 5944 5944 5944
5824 5828 5828 5827 5831 5836 5837 5837 5838 5840 5842 5844 5846 5848 5850 5850 5852 5853 5853 5856 5856 5852 5856 5862 5865 5864 5865 5870 5872 5872 5874 5878 5884 5886 5886 5887 5888 5889 5890 5892 5893 5894 5896 5896 5896 5896 5896 5896 5898 5900 5902 5904 5905 5906 5908 5910 5911 5913 5914 5916 5918 5919 5920 5921 5922 5922 5924 5924 5926 5927 5928 5930 5932 5933 5934 5935 5936 5936 5938 5939 5940 5941 5942 5942 5943 5943
5818 5823 5822 5824 5829 5832 5831 5832 5835 5837 5838 5840 5842 5844 5844 5846 5848 5848 5849 5850 5849 5849 5855 5860 5862 5862 5861 5866 5870 5870 5872 5878 5882 5883 5884 5884 5886 5887 5888 5890 5891 5892 5894 5894 5895 5896 5895 5896 5897 5899 5901 5903 5904 5906 5908 5909 5910 5912 5914 5915 5916 5918 5919 5920 5921 5922 5923 5924 5925 5926 5927 5928 5930 5932 5932 5934 5934 5935 5936 5937 5938 5940 5940 5942 5942 5942
5814 5818 5819 5821 5826 5827 5826 5829 5832 5832 5834 5836 5839 5840 5840 5842 5844 5845 5846 5847 5847 5850 5854 5856 5858 5858 5860 5866 5868 5867 5870 5876 5878 5880 5881 5882 5884 5884 5886 5888 5889 5890 5892 5893 5894 5894 5896 5896 5898 5898 5900 5902 5904 5905 5906 5908 5910 5911 5912 5914 5915 5916 5918 5918 5920 5920 5922 5922 5924 5924 5926 5926 5928 5930 5930 5932 5932 5934 5934 5936 5937 5938 5939 5940 5940 5940
5810 5814 5814 5817 5821 5822 5824 5826 5827 5829 5831 5834 5836 5836 5838 5840 5842 5844 5845 5846 5848 5850 5850 5852 5856 5856 5858 5864 5865 5866 5870 5872 5874 5876 5878 5880 5882 5883 5884 5886 5887 5888 5890 5891 5892 5893 5894 5896 5896 5898 5898 5900 5902 5904 5905 5906 5908 5910 5911 5912 5914 5915 5916 5917 5918 5919 5920 5921 5922 5922 5924 5925 5926 5928 5929 5930 5930 5932 5932 5934 5935 5936 5937 5938 5938 5939
5804 5808 5812 5816 5818 5820 5822 5824 5826 5828 5829 5831 5834 5835 5836 5838 5840 5842 5844 5846 5848 5848 5846 5847 5853 5856 5856 5860 5862 5866 5868 5870 5872 5875 5876 5878 5880 5882 5882 5883 5884 5886 5888 5890 5890 5892 5893 5894 5895 5896 5897 5898 5900 5902 5904 5905 5907 5908 5910 5911 5912 5913 5914 5916 5916 5918 5918 5920 5920 5921 5922 5924 5925 5926 5927 5928 5929 5930 5931 5932 5934 5934 5936 5936 5937 5938
5799 5803 5808 5812 5816 5818 5820 5822 5823 5824 5825 5828 5830 5830 5832 5836 5838 5840 5842 5843 5845 5844 5842 5844 5850 5854 5854 5856 5860 5864 5866 5868 5870 5873 5874 5876 5878 5880 5880 5881 5883 5884 5886 5888 5890 5891 5892 5893 5894 5894 5896 5898 5898 5900 5902 5904 5906 5907 5908 5910 5910 5912 5913 5914 5915 5916 5917 5918 5918 5920 5921 5922 5923 5924 5926 5926 5928 5928 5929 5930 5932 5932 5934 5934 5936 5936
5794 5798 5800 5804 5810 5812 5814 5818 5818 5820 5822 5824 5824 5827 5831 5834 5835 5836 5838 5840 5840 5840 5840 5843 5848 5850 5852 5854 5856 5860 5863 5866 5868 5871 5873 5875 5876 5878 5878 5880 5882 5883 5885 5886 5888 5890 5891 5892 5893 5894 5896 5896 5898 5899 5900 5902 5904 5905 5906 5908 5909 5910 5912 5912 5914 5914 5916 5916 5918 5918 5920 5920 5922 5923 5924 5924 5926 5926 5928 5928 5930 5930 5932 5932 5934 5935
5790 5792 5794 5798 5804 5806 5810 5812 5812 5814 5818 5818 5820 5826 5828 5828 5829 5832 5833 5834 5836 5836 5838 5842 5844 5848 5850 5852 5854 5858 5860 5863 5866 5869 5871 5872 5874 5875 5876 5878 5880 5882 5884 5885 5886 5888 5890 5891 5892 5894 5895 5896 5897 5898 5899 5900 5902 5903 5904 5906 5907 5908 5910 5911 5912 5912 5914 5915 5916 5916 5918 5920 5920 5922 5922 5922 5924 5924 5926 5927 5928 5929 5930 5931 5932 5933
5783 5786 5787 5793 5800 5802 5806 5806 5804 5807 5810 5812 5818 5822 5820 5820 5825 5828 5828 5830 5832 5834 5837 5840 5843 5846 5847 5850 5853 5856 5858 5860 5863 5866 5868 5869 5870 5872 5874 5876 5878 5880 5882 5883 5885 5886 5888 5890 5892 5893 5894 5896 5897 5898 5898 5898 5899 5900 5902 5904 5905 5906 5908 5908 5910 5911 5912 5913 5914 5915 5916 5918 5918 5920 5920 5921 5922 5922 5924 5925 5926 5927 5928 5929 5930 5931
5777 5781 5781 5787 5794 5796 5798 5798 5798 5802 5804 5808 5812 5814 5812 5816 5822 5823 5824 5828 5830 5833 5836 5838 5840 5843 5844 5847 5850 5852 5854 5857 5860 5861 5864 5866 5868 5870 5872 5874 5876 5878 5880 5882 5884 5885 5887 5889 5890 5892 5893 5894 5896 5896 5897 5897 5898 5899 5900 5902 5903 5904 5905 5907 5908 5910 5910 5912 5913 5914 5915 5916 5917 5918 5919 5920 5920 5921 5922 5923 5924 5925 5926 5927 5928 5930
5770 5776 5776 5780 5787 5789 5790 5792 5794 5797 5800 5802 5806 5807 5808 5814 5818 5818 5821 5824 5826 5830 5834 5836 5838 5840 5842 5843 5845 5848 5850 5852 5854 5856 5858 5861 5864 5866 5868 5871 5873 5875 5877 5880 5882 5884 5886 5887 5888 5890 5890 5891 5892 5893 5894 5896 5897 5898 5898 5900 5901 5902 5903 5905 5906 5908 5909 5910 5911 5912 5913 5914 5914 5916 5916 5918 5918 5920 5920 5920 5922 5922 5924 5925 5926 5927
5762 5769 5771 5774 5780 5784 5786 5788 5790 5792 5795 5800 5804 5804 5806 5812 5815 5815 5817 5820 5824 5828 5832 5834 5837 5838 5840 5840 5842 5844 5846 5847 5849 5852 5854 5857 5860 5862 5865 5868 5870 5872 5874 5877 5879 5881 5883 5884 5886 5887 5887 5887 5888 5890 5892 5893 5895 5896 5898 5899 5900 5900 5901 5903 5904 5906 5907 5908 5909 5910 5910 5912 5912 5913 5914 5915 5916 5916 5918 5918 5920 5920 5922 5922 5924 5924
5755 5761 5765 5768 5773 5780 5782 5782 5784 5787 5792 5796 5800 5801 5804 5808 5810 5812 5814 5820 5823 5826 5830 5832 5834 5837 5838 5838 5840 5842 5843 5844 5846 5848 5852 5854 5856 5859 5862 5864 5866 5869 5872 5874 5876 5878 5880 5882 5883 5884 5884 5885 5886 5887 5888 5890 5892 5894 5896 5898 5898 5898 5900 5902 5902 5904 5904 5906 5907 5908 5908 5909 5910 5911 5912 5912 5914 5914 5914 5916 5916 5918 5919 5920 5921 5922
5750 5754 5759 5763 5766 5772 5774 5774 5778 5782 5786 5789 5792 5795 5798 5801 5804 5808 5812 5816 5819 5822 5826 5828 5832 5834 5836 5837 5839 5840 5840 5842 5844 5846 5848 5850 5854 5856 5858 5860 5862 5866 5868 5871 5874 5876 5878 5879 5880 5880 5882 5883 5884 5884 5886 5888 5890 5892 5894 5894 5896 5898 5899 5900 5900 5901 5902 5904 5905 5906 5906 5908 5908 5909 5910 5910 5912 5912 5912 5912 5913 5914 5916 5917 5918 5920
5744 5746 5752 5757 5758 5762 5766 5767 5772 5777 5779 5782 5786 5790 5793 5796 5798 5802 5807 5810 5812 5816 5821 5824 5828 5832 5833 5835 5836 5837 5838 5840 5841 5844 5846 5848 5850 5853 5856 5858 5860 5862 5866 5868 5870 5872 5874 5875 5877 5878 5879 5880 5882 5882 5883 5884 5887 5890 5891 5892 5894 5896 5896 5896 5898 5898 5900 5901 5902 5902 5904 5905 5906 5906 5908 5908 5908 5909 5909 5910 5910 5912 5912 5914 5916 5916
5736 5738 5744 5748 5750 5756 5760 5762 5766 5771 5774 5776 5780 5784 5788 5790 5792 5798 5802 5804 5807 5813 5818 5821 5825 5828 5830 5832 5834 5834 5836 5838 5839 5842 5844 5846 5848 5850 5852 5854 5857 5860 5862 5865 5868 5869 5870 5872 5874 5876 5877 5878 5880 5881 5882 5882 5884 5886 5888 5890 5891 5892 5893 5894 5894 5896 5898 5898 5898 5900 5902 5902 5904 5904 5905 5905 5906 5906 5906 5907 5908 5908 5910 5911 5912 5914
5728 5730 5736 5742 5745 5749 5754 5756 5760 5766 5768 5770 5774 5778 5782 5784 5788 5794 5798 5800 5804 5811 5814 5818 5822 5826 5828 5830 5830 5832 5834 5835 5837 5840 5841 5843 5845 5847 5850 5852 5854 5856 5858 5861 5864 5866 5868 5870 5872 5874 5874 5876 5878 5879 5880 5880 5882 5883 5886 5887 5888 5888 5890 5891 5892 5894 5896 5896 5896 5898 5900 5900 5901 5902 5902 5902 5903 5903 5904 5904 5906 5906 5907 5908 5909 5910
5720 5724 5730 5736 5740 5742 5746 5750 5756 5760 5763 5766 5770 5774 5776 5779 5784 5790 5792 5796 5802 5807 5810 5816 5821 5824 5826 5828 5828 5830 5832 5833 5835 5836 5838 5840 5842 5844 5846 5848 5850 5852 5854 5858 5860 5862 5864 5867 5868 5870 5872 5874 5875 5876 5878 5878 5879 5881 5883 5884 5884 5886 5886 5888 5890 5892 5893 5894 5895 5896 5898 5898 5898 5898 5899 5900 5900 5901 5902 5902 5903 5904 5904 5905 5906 5907
5713 5716 5722 5729 5733 5736 5741 5745 5750 5754 5758 5762 5765 5769 5772 5776 5781 5786 5788 5792 5798 5801 5807 5814 5818 5820 5824 5826 5828 5829 5830 5832 5832 5834 5836 5838 5840 5842 5843 5844 5846 5848 5850 5853 5855 5858 5860 5862 5864 5866 5868 5870 5872 5873 5874 5876 5877 5879 5880 5882 5882 5883 5884 5886 5888 5890 5890 5892 5894 5895 5896 5896 5896 5896 5897 5898 5898 5898 5899 5900 5900 5901 5902 5902 5903 5904
5705 5708 5715 5722 5726 5730 5735 5739 5744 5748 5754 5756 5760 5764 5768 5772 5776 5780 5782 5788 5792 5796 5804 5812 5814 5816 5820 5823 5826 5828 5828 5830 5831 5832 5834 5836 5838 5839 5840 5842 5843 5845 5846 5848 5850 5853 5856 5858 5861 5863 5865 5867 5868 5870 5872 5874 5875 5876 5878 5878 5880 5880 5882 5883 5884 5886 5888 5890 5892 5892 5892 5892 5894 5894 5896 5896 5896 5896 5897 5898 5898 5898 5899 5900 5900 5901
5696 5700 5708 5716 5720 5724 5728 5733 5738 5742 5747 5750 5754 5758 5763 5766 5771 5774 5777 5783 5788 5792 5801 5808 5808 5812 5817 5820 5823 5825 5826 5827 5828 5831 5832 5834 5834 5836 5838 5840 5841 5842 5844 5846 5848 5850 5852 5855 5858 5860 5861 5864 5866 5868 5869 5870 5872 5874 5875 5876 5877 5878 5879 5880 5882 5884 5885 5887 5888 5889 5889 5890 5892 5892 5894 5894 5894 5894 5895 5896 5896 5896 5897 5898 5898 5899
5686 5692 5702 5709 5714 5718 5722 5726 5731 5735 5740 5744 5746 5752 5758 5762 5766 5769 5772 5778 5783 5788 5796 5802 5804 5809 5814 5818 5820 5822 5824 5825 5826 5828 5830 5831 5832 5834 5836 5838 5839 5841 5843 5844 5846 5848 5850 5852 5854 5856 5857 5860 5862 5864 5866 5868 5869 5870 5872 5874 5874 5875 5876 5877 5879 5880 5882 5884 5884 5886 5886 5888 5889 5890 5892 5892 5892 5892 5893 5894 5894 5895 5896 5896 5897 5897
5678 5686 5694 5700 5706 5710 5713 5718 5724 5728 5732 5736 5742 5748 5752 5756 5761 5764 5768 5774 5778 5782 5790 5796 5800 5806 5811 5814 5816 5818 5821 5823 5824 5826 5827 5828 5829 5830 5832 5835 5837 5838 5840 5842 5844 5846 5847 5849 5850 5852 5854 5856 5858 5860 5862 5864 5865 5867 5869 5870 5870 5872 5872 5874 5876 5877 5878 5880 5880 5882 5883 5884 5886 5888 5888 5890 5890 5890 5890 5892 5892 5894 5894 5894 5894 5896
5671 5678 5684 5692 5698 5702 5705 5712 5718 5722 5725 5730 5737 5742 5746 5751 5756 5760 5762 5768 5772 5776 5784 5790 5794 5802 5808 5808 5810 5814 5818 5820 5822 5822 5823 5824 5826 5828 5830 5832 5834 5836 5838 5840 5842 5843 5844 5846 5847 5849 5850 5852 5855 5857 5858 5860 5862 5864 5866 5866 5867 5869 5870 5872 5872 5874 5875 5876 5877 5878 5879 5880 5882 5884 5886 5886 5886 5887 5888 5889 5890 5891 5892 5892 5892 5894
5664 5670 5676 5684 5690 5694 5699 5706 5712 5716 5719 5724 5730 5735 5740 5746 5750 5753 5756 5762 5767 5772 5778 5784 5789 5797 5803 5803 5804 5810 5814 5816 5818 5819 5820 5822 5823 5825 5828 5829 5830 5832 5834 5836 5838 5840 5842 5844 5845 5846 5848 5850 5852 5854 5856 5857 5859 5860 5862 5863 5865 5867 5868 5868 5870 5870 5872 5873 5874 5875 5876 5878 5880 5880 5882 5882 5883 5884 5885 5886 5887 5888 5888 5890 5890 5890
5657 5662 5668 5675 5682 5688 5692 5698 5704 5710 5713 5718 5723 5730 5736 5740 5743 5747 5752 5757 5762 5766 5771 5776 5783 5792 5797 5798 5800 5806 5809 5810 5812 5815 5818 5820 5821 5823 5825 5826 5828 5830 5832 5834 5835 5837 5839 5842 5842 5844 5846 5846 5848 5850 5852 5854 5855 5856 5859 5860 5862 5864 5865 5866 5868 5868 5870 5870 5872 5872 5874 5875 5876 5877 5878 5879 5880 5881 5882 5883 5884 5885 5886 5886 5886 5888
5650 5655 5660 5667 5674 5680 5686 5691 5698 5704 5708 5712 5718 5724 5728 5732 5736 5742 5747 5750 5754 5758 5763 5770 5778 5786 5791 5794 5796 5800 5804 5805 5808 5812 5815 5816 5818 5820 5823 5824 5826 5827 5828 5830 5832 5834 5836 5838 5840 5842 5842 5844 5846 5846 5848 5850 5852 5854 5856 5857 5859 5860 5862 5864 5865 5866 5867 5868 5869 5870 5871 5872 5873 5874 5874 5876 5876 5878 5879 5880 5881 5881 5882 5882 5883 5884
5642 5648 5654 5660 5666 5672 5678 5683 5691 5698 5703 5708 5712 5714 5720 5727 5732 5736 5742 5745 5748 5752 5758 5765 5772 5779 5786 5790 5792 5795 5798 5800 5803 5809 5812 5814 5814 5816 5820 5821 5822 5824 5826 5828 5830 5831 5832 5834 5836 5838 5839 5841 5842 5844 5844 5846 5848 5850 5852 5854 5856 5858 5859 5860 5862 5864 5865 5866 5866 5868 5868 5868 5870 5870 5872 5872 5874 5875 5876 5876 5878 5878 5878 5879 5880 5880
5635 5641 5646 5652 5658 5664 5670 5676 5685 5692 5696 5699 5702 5706 5713 5721 5726 5731 5738 5740 5741 5746 5754 5760 5765 5772 5779 5784 5786 5790 5792 5794 5798 5804 5808 5808 5810 5812 5814 5816 5818 5820 5822 5824 5826 5828 5830 5831 5832 5834 5835 5838 5839 5840 5841 5842 5844 5846 5848 5850 5852 5854 5856 5858 5860 5862 5862 5863 5864 5864 5864 5866 5866 5868 5868 5870 5871 5872 5872 5873 5874 5874 5874 5875 5876 5876
5628 5633 5638 5644 5650 5656 5663 5670 5677 5683 5687 5690 5694 5700 5708 5714 5719 5726 5732 5734 5736 5742 5748 5754 5760 5766 5772 5778 5782 5785 5787 5789 5793 5798 5802 5804 5804 5806 5808 5811 5814 5816 5818 5820 5822 5825 5826 5828 5829 5830 5832 5834 5836 5836 5837 5838 5840 5842 5844 5846 5848 5850 5854 5856 5856 5858 5858 5859 5860 5861 5862 5862 5864 5865 5866 5867 5868 5868 5868 5869 5870 5870 5870 5870 5871 5872
5622 5626 5632 5638 5644 5650 5655 5662 5668 5674 5680 5684 5686 5692 5701 5708 5713 5719 5724 5727 5731 5736 5742 5748 5754 5760 5766 5771 5776 5779 5782 5784 5788 5794 5797 5798 5799 5800 5804 5806 5808 5812 5814 5816 5818 5820 5822 5824 5826 5826 5828 5830 5832 5832 5834 5835 5836 5838 5840 5842 5845 5848 5850 5851 5852 5854 5854 5856 5856 5858 5858 5860 5860 5862 5862 5863 5864 5864 5864 5866 5866 5866 5866 5866 5866 5866
5616 5620 5625 5630 5636 5642 5648 5654 5660 5665 5672 5676 5680 5686 5695 5702 5706 5712 5718 5722 5726 5730 5736 5742 5749 5754 5760 5764 5769 5773 5777 5780 5783 5788 5791 5793 5795 5796 5799 5802 5804 5807 5810 5812 5814 5816 5818 5820 5822 5823 5825 5827 5828 5830 5831 5832 5834 5835 5837 5840 5842 5844 5845 5846 5848 5850 5850 5852 5853 5854 5855 5856 5857 5858 5859 5859 5860 5860 5862 5862 5862 5862 5862 5862 5862 5863
5609 5614 5618 5622 5628 5636 5642 5646 5650 5656 5663 5669 5674 5680 5688 5695 5700 5705 5710 5715 5720 5724 5730 5737 5744 5749 5754 5758 5762 5767 5771 5774 5778 5782 5786 5788 5790 5792 5794 5797 5800 5802 5804 5807 5810 5812 5814 5816 5818 5820 5821 5823 5824 5826 5828 5830 5831 5832 5834 5836 5838 5840 5842 5843 5845 5846 5847 5848 5850 5850 5851 5852 5852 5854 5854 5854 5856 5858 5858 5858 5858 5858 5858 5858 5858 5858
5604 5608 5611 5616 5622 5626 5632 5636 5642 5649 5656 5662 5668 5675 5682 5688 5692 5698 5703 5708 5713 5720 5726 5730 5737 5744 5748 5752 5756 5761 5765 5769 5772 5776 5780 5784 5786 5787 5790 5792 5795 5798 5800 5802 5805 5808 5810 5812 5814 5816 5818 5819 5821 5822 5824 5826 5828 5829 5831 5833 5835 5836 5838 5840 5842 5842 5844 5845 5846 5846 5847 5848 5848 5850 5850 5850 5850 5852 5854 5854 5854 5854 5854 5854 5854 5854
5599 5601 5604 5608 5613 5616 5622 5629 5636 5643 5651 5657 5661 5666 5674 5680 5686 5692 5698 5702 5707 5714 5720 5724 5730 5738 5742 5747 5752 5756 5760 5763 5767 5770 5774 5778 5780 5783 5785 5788 5790 5793 5796 5798 5800 5802 5805 5807 5809 5812 5814 5816 5817 5819 5820 5822 5824 5826 5828 5830 5831 5832 5834 5836 5838 5839 5840 5841 5842 5842 5842 5843 5844 5845 5845 5845 5846 5846 5848 5849 5849 5850 5850 5850 5849 5849
5593 5594 5597 5602 5607 5610 5616 5624 5632 5638 5645 5648 5651 5658 5667 5676 5682 5687 5691 5696 5702 5708 5713 5718 5724 5730 5736 5742 5746 5750 5754 5758 5761 5765 5768 5772 5776 5778 5780 5783 5786 5788 5791 5794 5796 5798 5800 5802 5804 5806 5809 5811 5813 5815 5817 5818 5820 5822 5824 5825 5827 5828 5830 5832 5833 5834 5836 5836 5838 5838 5838 5839 5840 5840 5841 5841 5842 5842 5843 5844 5844 5844 5844 5844 5844 5844
5586 5588 5592 5596 5600 5604 5610 5618 5625 5632 5636 5640 5647 5656 5663 5670 5677 5681 5684 5690 5696 5701 5707 5713 5718 5724 5730 5736 5742 5746 5750 5752 5756 5759 5763 5767 5770 5774 5776 5778 5781 5783 5786 5788 5790 5792 5795 5798 5800 5802 5804 5806 5808 5810 5812 5814 5816 5818 5819 5820 5822 5824 5826 5827 5828 5830 5831 5832 5833 5834 5834 5835 5836 5836 5837 5837 5838 5838 5838 5838 5838 5839 5838 5838 5838 5838
5582 5582 5585 5590 5594 5598 5604 5612 5620 5626 5631 5637 5644 5651 5656 5662 5669 5674 5678 5683 5690 5696 5702 5708 5713 5719 5724 5730 5736 5741 5744 5748 5750 5753 5757 5762 5766 5768 5771 5774 5776 5778 5780 5783 5786 5788 5790 5792 5795 5798 5800 5802 5804 5806 5808 5810 5812 5813 5814 5816 5818 5819 5820 5822 5824 5824 5826 5827 5828 5829 5830 5830 5831 5832 5832 5832 5833 5833 5834 5834 5834 5833 5832 5832 5832 5831
5575 5578 5582 5586 5588 5592 5599 5609 5616 5620 5624 5632 5639 5644 5648 5654 5662 5668 5674 5679 5685 5692 5698 5702 5708 5713 5718 5724 5731 5736 5740 5743 5746 5748 5752 5756 5760 5763 5766 5768 5771 5774 5776 5778 5780 5783 5785 5788 5790 5792 5794 5797 5798 5800 5802 5804 5806 5808 5810 5812 5812 5814 5816 5817 5818 5820 5821 5822 5823 5824 5824 5825 5826 5826 5826 5827 5828 5828 5828 5827 5826 5826 5826 5826 5824 5824
5571 5576 5579 5580 5582 5586 5596 5606 5610 5612 5618 5626 5632 5636 5642 5648 5656 5664 5670 5676 5681 5688 5693 5698 5702 5708 5712 5718 5724 5730 5736 5738 5741 5744 5746 5750 5754 5758 5760 5763 5766 5768 5771 5773 5776 5778 5780 5783 5785 5787 5789 5792 5794 5796 5798 5800 5801 5803 5804 5806 5808 5810 5810 5812 5813 5814 5816 5816 5818 5818 5819 5820 5820 5820 5820 5821 5821 5821 5821 5820 5819 5819 5818 5818 5818 5817
5568 5572 5572 5573 5577 5584 5594 5600 5602 5606 5614 5621 5626 5631 5638 5644 5650 5658 5665 5672 5678 5682 5686 5691 5696 5702 5706 5711 5716 5724 5730 5734 5736 5738 5742 5744 5748 5752 5755 5758 5761 5764 5766 5768 5771 5773 5775 5778 5780 5782 5784 5786 5788 5790 5792 5794 5796 5798 5800 5801 5803 5804 5806 5807 5808 5809 5810 5811 5812 5812 5813 5814 5814 5814 5814 5814 5814 5814 5814 5813 5812 5812 5812 5812 5811 5810